Terminal Aerodrome Forecast
Issued by NWS Northern Indiana

Home | Current Version | Previous Version | Graphics & Text | Print | Product List | Glossary On
Versions: 1 2 3 4 5 6 7 8 9 10 11 12 13
000
FTUS43 KIWX 271700
TAFFWA
TAF
KFWA 271730Z 2718/2818 02005KT P6SM SCT150
     FM280200 01005KT P6SM SCT100
      TEMPO 2809/2812 3SM BR
     FM281400 07006KT P6SM BKN250=

USA.gov is the U.S. government's official web portal to all federal, state and local government web resources and services.